Simultaneous Nadir Overpasses (SNOs) Predictions

Prediction of SNOs between GOES-17 and METOP-C Satellite Orbit:

Table of predicted SNOs for the next 14.0 days since TLE Epoch: 7/12/2019
Index Date Time (GOES-17) GOES-17 Lat,Lon METOP-C Lat,Lon Distance(km) Time Diff (sec)
1 07/13/2019 06:21:32 0.01,-137.19 0.93,-133.15 460.97 80
2 07/14/2019 18:40:24 -0.01,-137.20 0.11,-137.71 58.41 80
3 07/17/2019 06:41:25 0.01,-137.18 -0.01,-137.31 14.87 80
4 07/19/2019 18:39:39 -0.02,-137.17 -0.11,-136.89 32.98 80
5 07/21/2019 06:58:38 0.02,-137.15 -0.95,-141.47 492.32 80
6 07/22/2019 06:35:20 0.03,-137.14 0.20,-136.49 75.54 80
7 07/23/2019 18:54:12 -0.03,-137.13 0.83,-141.05 445.90 80
8 07/24/2019 18:36:13 -0.03,-137.12 -0.27,-136.05 121.84 80
9 07/26/2019 06:55:13 0.03,-137.10 -0.74,-140.65 404.25 80




NCC Satellite Simultaneous Nadir Overpasses (SNOs) Prediction Service
